Regional Weather Roundup
Issued by NWS

Home | Current Version | Previous Version | Graphics & Text | Print | Product List | Glossary On
Versions: 1 2 3 4 5 6 7 8 9 10 11 12 13 14 15 16 17 18 19 20 21 22 23 24 25 26 27 28 29 30 31 32 33 34 35 36 37 38 39 40 41 42 43 44 45 46 47 48 49 50
000
ASUS43 KDTX 170410
RWRMI
MICHIGAN HOURLY REGIONAL WEATHER ROUNDUP
NATIONAL WEATHER SERVICE DETROIT/PONTIAC MI
1100 PM EST TUE JAN 16 2018

NOTE: "FAIR" INDICATES FEW OR NO CLOUDS BELOW 12,000 FEET WITH NO
SIGNIFICANT WEATHER AND/OR OBSTRUCTION TO VISIBILITY.

MIZ047>049-052>055-059>063-066>070-074>076-081>083-170500-
SOUTHEAST LOWER MICHIGAN

CITY           SKY/WX    TMP DP  RH WIND       PRES   REMARKS
ADRIAN         CLOUDY     1  -2  87 SW3       30.48S
ALMA           FAIR      11   7  81 NW5       30.45S WCI   3
ANN ARBOR      FAIR       0  -3  87 S5        30.45S WCI -10
BAD AXE        FAIR       3   0  87 NW3       30.41S
CARO           MOCLDY     2  -1  86 CALM      30.42S
DETROIT CITY   CLOUDY    11   7  84 W7        30.45S WCI   0
DETROIT        LGT SNOW   8   4  83 SW9       30.48R FOG     WCI  -5
FLINT          FAIR      10   7  87 SW3       30.43S
GROSSE ILE     LGT SNOW   8   3  82 W8        30.47S WCI  -5
HILLSDALE      FAIR       3   0  85 W6        30.43R WCI  -8
HOWELL         FAIR       4   2  91 W8        30.43S WCI  -9

CITY           SKY/WX    TMP DP  RH WIND       PRES   REMARKS
JACKSON        FAIR       2  -1  88 W3        30.45R
LAMBERTVILLE   FLURRIES   6   1  80 SW5       30.49S WCI  -3
LANSING        LGT SNOW  11   8  88 SW5       30.45S FOG     WCI   3
LAPEER         LGT SNOW   9   6  89 W3        30.42S
MASON          LGT SNOW   9   4  78 SW3       30.45R
MONROE         CLOUDY     6  -1  74 W8        30.48S WCI  -7
MT. CLEMENS    CLOUDY    12  10  90 W10       30.44R WCI  -1
PONTIAC        LGT SNOW   8   6  92 W8        30.41S FOG     WCI  -4
PORT HOPE        N/A     15   8  73 W7        30.40S WCI   5
PORT HURON     FLURRIES  18  12  79 W6        30.42S WCI   9
TRI CITIES     MOCLDY    13   8  81 W5        30.44S WCI   5
MIDLAND        FAIR      11   7  83 NW3       30.44S
TROY           CLOUDY    12   8  83 W6        30.46S WCI   3
SAGINAW HB     CLOUDY    12   9  85 CALM      30.44S
$$
MIZ043>046-050>051-056>058-064>065-071>073-077>080-170500-
SOUTHWEST LOWER MICHIGAN

CITY           SKY/WX    TMP DP  RH WIND       PRES   REMARKS
BATTLE CREEK   FAIR       4   0  83 S6        30.46R WCI  -7
BENTON HARBOR  CLOUDY    11   7  84 CALM      30.49S FOG
BIG RAPIDS     FAIR       5   0  78 CALM      30.42S
COLDWATER      FAIR       0  -2  90 CALM      30.46S
FREMONT        FAIR      12   1  62 CALM      30.46S
HOLLAND        CLOUDY     9   5  84 CALM      30.48S
GRAND RAPIDS   FAIR      14   6  70 N3        30.45S
IONIA          FAIR      12   8  87 W5        30.44S WCI   4
KALAMAZOO      FAIR       2   0  91 SW6       30.47S WCI  -9
LUDINGTON      LGT SNOW  16  14  92 CALM      30.45S
MARSHALL       FAIR       2  -1  86 SW3       30.45F
MOUNT PLEASANT FAIR      10   4  74 W3        30.43S
MUSKEGON       MOCLDY    16   5  62 CALM      30.48S
SOUTH HAVEN    MOCLDY    10   7  88 CALM      30.49R
$$
MIZ016>042-170500-
NORTHERN LOWER MICHIGAN

CITY           SKY/WX    TMP DP  RH WIND       PRES   REMARKS
ALPENA         FAIR       3   1  91 W5        30.40F WCI  -6
BEAVER ISLAND  CLOUDY    16  13  86 CALM      30.39F
BELLAIRE       FLURRIES   1   0  94 CALM      30.43S
CADILLAC       FAIR       0  -5  80 CALM      30.37F
CHARLEVOIX     CLOUDY    11   8  85 E3        30.43F
FRANKFORT      LGT SNOW  18  15  90 SE3       30.43S VSB 3/4
GAYLORD        FAIR      -1  -1 100 CALM      30.34F
GRAYLING       FAIR      -6 -12  77 CALM      30.38F
HARBOR SPRINGS FAIR       2  -1  86 CALM      30.39F
HOUGHTON LAKE  FAIR       2  -1  88 CALM      30.38F
MANISTEE       LGT SNOW  16  12  86 CALM      30.44F FOG
OSCODA         FAIR      -2  -7  79 W3        30.41S
PELLSTON       FAIR      -7 -11  83 CALM      30.40F
ROGERS CITY    FAIR       7   2  80 SW7       30.40S WCI  -4
TRAVERSE CITY  LGT SNOW  15   9  76 CALM      30.41F
$$
MIZ007>008-015-170500-
EASTERN UPPER MICHIGAN

CITY           SKY/WX    TMP DP  RH WIND       PRES   REMARKS
KINROSS        MOCLDY     5   2  87 SW3       30.36F
MACKINAC ISLAN FAIR       8   5  87 SW7       30.37F WCI  -4
NEWBERRY       CLOUDY    13  13  97 SW7       30.34F WCI   3
S. S. MARIE    FLURRIES   9   5  84 SW6       30.35F WCI  -1
MUNISING         N/A     13   8  81 SW6       30.37F WCI   4
$$
MIZ004>006-011>014-085-170500-
CENTRAL UPPER MICHIGAN

CITY           SKY/WX    TMP DP  RH WIND       PRES   REMARKS
MANISTIQUE     MOCLDY    12  11  93 W3        30.38F
ESCANABA       FAIR       6   3  87 W6        30.42F WCI  -4
MENOMINEE      FAIR       0  -4  83 CALM      30.45F
SAWYER-GWINN   FAIR       7   4  89 SW7       30.33F WCI  -5
$$
MIZ001>003-009>011-084-170500-
WESTERN UPPER MICHIGAN

CITY           SKY/WX    TMP DP  RH WIND       PRES   REMARKS
IRON MOUNTAIN  FAIR      -5  -9  83 CALM      30.35F
HOUGHTON       MOCLDY    19  11  70 W13       30.28F WCI   6
COPPER HARBOR    N/A     18  12  77 VRB5      30.29F WCI  11
IRONWOOD       FAIR       8   2  76 SW12      30.38F WCI  -7
$$

ABBREVIATIONS USED IN REMARKS
   TC - TEMPERATURE IN CELSIUS
  WCI - WIND CHILL INDEX
   HX - HEAT INDEX
  VSB - VISIBILITY





USA.gov is the U.S. government's official web portal to all federal, state and local government web resources and services.